Hourly Data Report for October 16, 2015

All times are specified in Local Standard Time (LST). Add 1 hour to adjust for Daylight Saving Time where and when it is observed.

CORAL HARBOUR A
NUNAVUT

64°11'36.000" N
83°21'34.000" W
62.20 m
2301002
71915
YZS

Download Data

Hourly Data (October 2015)
Hourly Data Report for October 16, 2015
Temp Definition
°C
Dew Point Temp Definition
°C
Rel Hum Definition
%
Wind Dir Definition
10's deg

Wind Spd Definition
km/h
Visibility Definition
km
Stn Press Definition
kPa
Hmdx Definition


Wind Chill Definition


Weather Definition


TIME
00:00 Legend Double Dagger -9.8 -13.1 77 29 15 24.1 100.38   -16 Snow
01:00 Legend Double Dagger -9.8 -13.1 77 29 16 24.1 100.39   -17 Snow
02:00 Legend Double Dagger -9.6 -13.2 75 30 18 24.1 100.40   -17 Snow
03:00 Legend Double Dagger -9.6 -12.8 78 28 12 19.3 100.41   -15 Snow
04:00 Legend Double Dagger -9.4 -12.1 81 26 12 19.3 100.40   -15 Snow
05:00 Legend Double Dagger -9.5 -11.6 85 30 10 19.3 100.42   -15 Snow
06:00 Legend Double Dagger -9.9 -13.5 75 31 27 19.3 100.44   -19 Snow
07:00 Legend Double Dagger -10.5 -14.0 76 31 21 24.1 100.44   -19 Snow
08:00 Legend Double Dagger -10.7 -13.8 78 30 18 24.1 100.43   -18 Snow
09:00 Legend Double Dagger -11.0 -14.3 77 32 17 24.1 100.45   -18 Snow
10:00 Legend Double Dagger -10.9 -14.5 75 31 17 24.1 100.46   -18 Snow
11:00 Legend Double Dagger -10.0 -14.1 72 32 29 24.1 100.45   -19 Snow
12:00 Legend Double Dagger -9.7 -14.0 71 32 21 24.1 100.47   -18 Snow
13:00 Legend Double Dagger -9.5 -13.7 72 33 22 24.1 100.46   -18 Snow
14:00 Legend Double Dagger -9.0 -13.3 71 33 20 24.1 100.48   -17 Snow
15:00 Legend Double Dagger -8.7 -13.6 68 32 30 24.1 100.48   -18 LegendNANA
16:00 Legend Double Dagger -8.6 -12.8 72 33 26 24.1 100.51   -17 Mostly Cloudy
17:00 Legend Double Dagger -9.4 -12.9 76 30 19 24.1 100.52   -17 Snow
18:00 Legend Double Dagger -9.0 -12.0 79 30 13 24.1 100.52   -15 Snow
19:00 Legend Double Dagger -8.5 -11.8 77 29 14 24.1 100.50   -15 Snow
20:00 Legend Double Dagger -8.3 -11.3 79 28 15 24.1 100.48   -15 Snow
21:00 Legend Double Dagger -8.3 -10.7 83 28 17 24.1 100.45   -15 Snow
22:00 Legend Double Dagger -8.3 -10.5 84 30 9 24.1 100.44   -13 Snow
23:00 Legend Double Dagger -8.0 -10.3 84 31 16 24.1 100.45   -15 Snow

Notes on Data Quality.

Legend

  • E = Estimated
  • M = Missing
  • NA = Not Available
  • ‡ = Partner data that is not subject to review by the National Climate Archives
Date modified: